Hourly Weather Bolshoe Elovo

Today, 27 July, Tuesday

Time Temperature Precipitation Wind Pressure Humidity
00:00 +15°C° 0 mm 2 mps 753 mmHg 70%
01:00 +13°C° 0 mm 3 mps 753 mmHg 71%
02:00 +13°C° 0 mm 3 mps 752 mmHg 73%
03:00 +13°C° 0 mm 3 mps 752 mmHg 74%
04:00 +14°C° 0 mm 3 mps 752 mmHg 70%
05:00 +15°C° 0 mm 4 mps 752 mmHg 66%
06:00 +17°C° 0 mm 4 mps 752 mmHg 63%
07:00 +18°C° 0 mm 4 mps 751 mmHg 59%
08:00 +20°C° 0 mm 5 mps 751 mmHg 56%
09:00 +22°C° 0 mm 5 mps 751 mmHg 53%
10:00 +23°C° 0 mm 5 mps 751 mmHg 50%
11:00 +24°C° 0 mm 6 mps 751 mmHg 48%
12:00 +24°C° 0 mm 6 mps 751 mmHg 45%
13:00 +24°C° 0 mm 6 mps 751 mmHg 43%
14:00 +24°C° 0 mm 6 mps 750 mmHg 40%
15:00 +24°C° 0 mm 6 mps 750 mmHg 37%
16:00 +23°C° 0 mm 5 mps 750 mmHg 41%
17:00 +22°C° 0 mm 4 mps 750 mmHg 45%
18:00 +21°C° 0 mm 4 mps 750 mmHg 49%
19:00 +19°C° 0 mm 3 mps 750 mmHg 55%
20:00 +17°C° 0 mm 2 mps 750 mmHg 60%
21:00 +15°C° 0 mm 2 mps 750 mmHg 66%
22:00 +14°C° 0 mm 2 mps 751 mmHg 68%
23:00 +13°C° 0 mm 2 mps 751 mmHg 71%

Tomorrow, 28 July, Wednesday

Time Temperature Precipitation Wind Pressure Humidity
00:00 +12°C° 0 mm 2 mps 751 mmHg 74%
01:00 +12°C° 0 mm 2 mps 751 mmHg 76%
02:00 +10°C° 0 mm 2 mps 751 mmHg 79%
03:00 +9°C° 0 mm 2 mps 751 mmHg 81%
04:00 +12°C° 0 mm 2 mps 751 mmHg 74%
05:00 +13°C° 0 mm 1 mps 751 mmHg 67%
06:00 +14°C° 0 mm 1 mps 752 mmHg 61%
07:00 +16°C° 0 mm 2 mps 751 mmHg 53%
08:00 +18°C° 0 mm 2 mps 751 mmHg 46%
09:00 +20°C° 0 mm 3 mps 751 mmHg 39%
10:00 +21°C° 0 mm 3 mps 751 mmHg 37%
11:00 +22°C° 0 mm 4 mps 751 mmHg 35%
12:00 +22°C° 0 mm 4 mps 751 mmHg 34%
13:00 +23°C° 0 mm 4 mps 750 mmHg 34%
14:00 +23°C° 0 mm 5 mps 750 mmHg 34%
15:00 +25°C° 0 mm 5 mps 750 mmHg 34%
16:00 +23°C° 0 mm 4 mps 750 mmHg 39%
17:00 +22°C° 0 mm 3 mps 750 mmHg 44%
18:00 +21°C° 0 mm 2 mps 750 mmHg 48%
19:00 +19°C° 0 mm 2 mps 750 mmHg 53%
20:00 +18°C° 0 mm 1 mps 749 mmHg 57%
21:00 +14°C° 0 mm 0 mps 749 mmHg 62%
22:00 +14°C° 0 mm 1 mps 749 mmHg 63%
23:00 +14°C° 0 mm 1 mps 749 mmHg 64%

Day after tomorrow, 29 July, Thursday

Time Temperature Precipitation Wind Pressure Humidity
00:00 +14°C° 0 mm 1 mps 749 mmHg 66%
01:00 +13°C° 0 mm 2 mps 749 mmHg 67%
02:00 +13°C° 0 mm 2 mps 749 mmHg 69%
03:00 +13°C° 0 mm 2 mps 749 mmHg 71%
04:00 +14°C° 0 mm 2 mps 748 mmHg 68%
05:00 +15°C° 0 mm 2 mps 748 mmHg 65%
06:00 +16°C° 0 mm 3 mps 748 mmHg 62%
07:00 +18°C° 0 mm 3 mps 748 mmHg 57%
08:00 +21°C° 0 mm 4 mps 747 mmHg 52%
09:00 +23°C° 0 mm 5 mps 747 mmHg 47%
10:00 +25°C° 0 mm 5 mps 747 mmHg 46%
11:00 +26°C° 0 mm 5 mps 746 mmHg 46%
12:00 +27°C° 0 mm 6 mps 746 mmHg 45%
13:00 +24°C° 0.7 mm 6 mps 746 mmHg 59%
14:00 +22°C° 0.7 mm 6 mps 745 mmHg 73%
15:00 +19°C° 0.7 mm 6 mps 745 mmHg 87%
16:00 +19°C° 0.9 mm 5 mps 745 mmHg 90%
17:00 +18°C° 0.9 mm 4 mps 744 mmHg 94%
18:00 +18°C° 0.9 mm 3 mps 744 mmHg 97%
19:00 +18°C° 0.4 mm 3 mps 744 mmHg 97%
20:00 +18°C° 0.4 mm 4 mps 744 mmHg 96%
21:00 +18°C° 0.4 mm 4 mps 744 mmHg 96%
22:00 +17°C° 0.1 mm 3 mps 744 mmHg 97%
23:00 +17°C° 0.1 mm 3 mps 744 mmHg 97%

30 July, Friday

Time Temperature Precipitation Wind Pressure Humidity
00:00 +17°C° 0.1 mm 2 mps 743 mmHg 98%
01:00 +16°C° 0 mm 2 mps 743 mmHg 98%
02:00 +16°C° 0 mm 2 mps 743 mmHg 98%
03:00 +16°C° 0 mm 2 mps 743 mmHg 98%
04:00 +16°C° 0 mm 2 mps 743 mmHg 96%
05:00 +17°C° 0 mm 3 mps 743 mmHg 94%
06:00 +18°C° 0 mm 3 mps 743 mmHg 93%
07:00 +19°C° 0 mm 3 mps 743 mmHg 89%
08:00 +20°C° 0 mm 4 mps 743 mmHg 84%
09:00 +21°C° 0 mm 5 mps 743 mmHg 80%
10:00 +23°C° 0.2 mm 5 mps 742 mmHg 71%
11:00 +26°C° 0.2 mm 6 mps 742 mmHg 62%
12:00 +28°C° 0.2 mm 7 mps 742 mmHg 53%
13:00 +28°C° 0 mm 6 mps 742 mmHg 53%
14:00 +27°C° 0 mm 6 mps 742 mmHg 52%
15:00 +27°C° 0 mm 5 mps 742 mmHg 52%
16:00 +26°C° 0 mm 5 mps 742 mmHg 55%
17:00 +26°C° 0 mm 5 mps 742 mmHg 58%
18:00 +25°C° 0 mm 4 mps 742 mmHg 61%
19:00 +23°C° 0 mm 4 mps 743 mmHg 67%
20:00 +21°C° 0 mm 4 mps 743 mmHg 74%
21:00 +20°C° 0 mm 3 mps 743 mmHg 80%
22:00 +20°C° 0 mm 3 mps 743 mmHg 78%
23:00 +20°C° 0 mm 3 mps 743 mmHg 75%

31 July, Saturday

Time Temperature Precipitation Wind Pressure Humidity
00:00 +20°C° 0 mm 4 mps 743 mmHg 73%
01:00 +19°C° 0 mm 3 mps 744 mmHg 78%
02:00 +18°C° 0 mm 3 mps 744 mmHg 83%
03:00 +17°C° 0 mm 2 mps 744 mmHg 89%
04:00 +17°C° 0 mm 2 mps 745 mmHg 85%
05:00 +18°C° 0 mm 3 mps 745 mmHg 82%
06:00 +19°C° 0 mm 3 mps 746 mmHg 79%
07:00 +21°C° 0 mm 3 mps 746 mmHg 72%
08:00 +24°C° 0 mm 3 mps 746 mmHg 65%
09:00 +25°C° 0 mm 3 mps 746 mmHg 58%
10:00 +27°C° 0 mm 3 mps 746 mmHg 53%
11:00 +28°C° 0 mm 3 mps 746 mmHg 47%
12:00 +29°C° 0 mm 3 mps 746 mmHg 42%
13:00 +29°C° 0 mm 3 mps 746 mmHg 41%
14:00 +30°C° 0 mm 3 mps 746 mmHg 39%
15:00 +30°C° 0 mm 3 mps 746 mmHg 38%
16:00 +29°C° 0 mm 2 mps 746 mmHg 43%
17:00 +28°C° 0 mm 1 mps 746 mmHg 48%
18:00 +26°C° 0 mm 0 mps 746 mmHg 53%
19:00 +26°C° 0 mm 1 mps 746 mmHg 55%
20:00 +25°C° 0 mm 2 mps 746 mmHg 57%
21:00 +23°C° 0 mm 2 mps 746 mmHg 59%
22:00 +23°C° 0 mm 2 mps 746 mmHg 59%
23:00 +21°C° 0 mm 3 mps 745 mmHg 59%

1 August, Sunday

Time Temperature Precipitation Wind Pressure Humidity
00:00 +21°C° 0 mm 3 mps 745 mmHg 59%
01:00 +21°C° 0 mm 3 mps 745 mmHg 63%
02:00 +20°C° 0 mm 3 mps 745 mmHg 67%
03:00 +19°C° 0 mm 3 mps 745 mmHg 71%
04:00 +20°C° 0.5 mm 2 mps 745 mmHg 76%
05:00 +20°C° 0.5 mm 2 mps 745 mmHg 82%
06:00 +20°C° 0.5 mm 2 mps 745 mmHg 87%
07:00 +21°C° 0.3 mm 2 mps 745 mmHg 82%
08:00 +24°C° 0.3 mm 3 mps 745 mmHg 78%
09:00 +26°C° 0.3 mm 4 mps 745 mmHg 73%
10:00 +27°C° 0 mm 4 mps 745 mmHg 66%
11:00 +29°C° 0 mm 4 mps 745 mmHg 58%
12:00 +30°C° 0 mm 4 mps 745 mmHg 51%
13:00 +30°C° 0 mm 4 mps 745 mmHg 48%
14:00 +32°C° 0 mm 4 mps 745 mmHg 46%
15:00 +32°C° 0 mm 5 mps 745 mmHg 43%
16:00 +30°C° 0 mm 4 mps 745 mmHg 48%
17:00 +29°C° 0 mm 3 mps 745 mmHg 53%
18:00 +28°C° 0 mm 3 mps 745 mmHg 57%
19:00 +26°C° 0.6 mm 3 mps 745 mmHg 67%
20:00 +24°C° 0.6 mm 2 mps 746 mmHg 77%
21:00 +21°C° 0.6 mm 2 mps 746 mmHg 86%
22:00 +20°C° 0.1 mm 2 mps 746 mmHg 87%
23:00 +20°C° 0.1 mm 2 mps 747 mmHg 87%
Show more

We Need Your Consent

Meteoprog and our Service Providers may store and access personal data such as cookies, device identifiers or other similar technologies on your device and process such data to personalise content and ads, as well as provide social media features and to analyse the traffic.

  • Store and/or access information on your device

    Cookies, device identifiers or other information can be stored or accessed on your device for the purposes indicated above.

  • Personalised ads and content, ad and content measurement, audience insights, and products development

    Ads and content can be personalised based on a profile. More data can be added to better personalise ads and content. Ad and content performance can be measured. Insights about the audience who saw the ads and content can be derived. Such data can be used to develop or improve user’s experience, systems and software.

By clicking ‘I Agree’ you will allow the use of indicated cookies, device identifiers, web beacons or other similar technologies. Your settings can be changed in the browser on your device.

For certain purposes, legitimate interests may be relied on, rather than consent. You can read more about this in our Privacy and Cookie Policy.